Location: Bremen
(53.0793°N, 8.8017°E)
Time: 12:18:02
(UTC+02:00)

Transit 2A Rocket - Pass Details

Date: 28 June 2024
Orbit: 582 x 910 km, 66.7° (Epoch: 19 July)

Event Time Altitude Azimuth Distance (km) Brightness Sun altitude
Rises 02:18:07 0° 313° (NW) 3,435 8.8 -12.9°
Reaches altitude 10° 02:20:53 10° 324° (NW) 2,536 8.3 -12.8°
Maximum altitude 02:26:03 30° 24° (NNE) 1,572 7.5 -12.6°
Drops below altitude 10° 02:31:21 10° 84° (E) 2,602 8.0 -12.4°
Sets 02:34:13 0° 96° (E) 3,539 8.6 -12.3°
